Back to catalog

DELTA 1 DEB

AliveSSO
NORAD 7160·DEBRIS·🇺🇸 United States

Launched Nov 6, 1973 from Vandenberg Space Force Base

Loading…

Next Passes (next 24 hours)

TLE

FreshSource: Space-Track

Epoch: Sep 14, 2026, 08:01 UTC

1 07160U 73086DY  26257.33466907  .00000145  00000-0  14979-2 0  9990
2 07160 102.1326 220.9709 0078003 189.2264 333.3156 12.35288099376793

Track DELTA 1 DEB in real time with AllMySat

Download on the App Store